Weather in Maragheh

Iran     37°23′22″N   46°14′20″E
temp.,
°C
wind,
m/s
gust,
m/s
humid.,
%
clouds,
%
prec.,
mm/h
press.,
hPa
HPBL,
m
17 september, fri
fri1701:30+16ene11270 0.0 1010191
04:30+14se11330 0.0 101099
07:30+13e22360 0.0 1012184
10:30+18sse22260 0.0 1011885
13:30+22ssw45140 0.0 10101720
16:30+23sw47120 0.0 10082353
19:30+19wsw23140 0.0 1008449
22:30+17ssw23230 0.0 1010163
18 september, sat
sat1801:30+15sse11330 0.0 1011226
04:30+14ese11360 0.0 1012146
07:30+13se11390 0.0 1013136
10:30+17s32300 0.0 1013941
13:30+21sw43220 0.0 10121809
16:30+22sw44160 0.0 10111729
19:30+19wnw01190 0.0 1011402
22:30+18nne11200 0.0 101395
19 september, sun
sun1901:30+16ese22240 0.0 1014123
04:30+15ene22270 0.0 101466
07:30+14e22350 0.0 101577
10:30+19sse23280 0.0 1015905
13:30+23s43194 0.0 10131983
16:30+24sw33155 0.0 10121957
19:30+20ssw11180 0.0 1011413
22:30+19ne22160 0.0 101328
20 september, mon
mon2001:30+17ese11190 0.0 101318
04:30+15e22210 0.0 101323
07:30+15ene22250 0.0 101432
10:30+20s22190 0.0 1014877
13:30+23ssw33140 0.0 10121614
16:30+24sw43120 0.0 10101848
19:30+21nnw22160 0.0 1011325
22:30+19n11190 0.0 101341
21 september, tue
tue2101:30+17ese12230 0.0 101337
04:30+16ne11240 0.0 101325
07:30+15ene11280 0.0 101425
10:30+21ssw21220 0.0 1014837
13:30+24sw43191 0.0 10121995
16:30+25wsw43181 0.0 10102159
19:30+21nnw35220 0.0 1011305
22:30+19ne45234 0.0 101382